Wind_Speed
10 19 12 5 3 2 15 11 16 19 20 21 28 20 20 25 12 14 18 17 17 17 14 17 17 18 16 14 11 5 11 16 20 25 26 27 30 31 26 21 22 20 17 16 15 16 16 18 19
12 12 7 7 3 10 12 18 12 11 23 25 26 26 26 24 29 23 20 20 22 20 14 18 19 20 21 24 20 13 15 20 23 26 26 29 31 26 22 22 19 19 16 15 15 18 20 19 20
15 13 7 2 8 9 9 15 12 14 17 19 23 24 21 24 27 25 20 26 23 19 17 19 20 20 23 26 25 21 21 23 23 22 29 30 31 23 23 21 18 15 15 17 20 20 19 17 20
10 16 11 10 16 17 10 13 13 13 18 22 19 13 22 23 23 22 23 22 21 19 17 19 19 20 23 29 26 25 25 22 21 23 26 26 28 26 19 16 16 15 17 19 19 18 18 17 18
10 2 0 10 20 12 12 12 16 13 15 24 23 20 26 22 20 19 17 19 21 20 16 19 18 20 21 28 32 26 22 22 20 21 27 27 24 22 15 12 13 19 19 18 18 18 16 14 16
12 5 14 8 18 13 9 19 17 19 19 23 22 23 23 19 17 18 15 23 18 20 17 18 17 18 18 22 28 31 29 29 23 22 20 24 24 17 17 18 20 20 19 17 16 14 13 13 13
2 7 13 8 20 16 10 18 14 17 18 21 21 18 21 19 16 17 19 16 18 20 18 18 17 17 18 17 20 23 24 29 31 30 31 27 25 25 23 21 20 18 16 14 13 12 12 13 12
5 6 12 19 18 14 11 16 20 14 15 18 21 13 17 19 17 16 17 21 22 14 21 15 18 16 16 16 17 19 20 25 32 29 26 28 27 24 24 18 15 13 12 11 11 12 11 11 12
6 3 13 20 16 16 16 14 15 13 13 13 16 22 22 19 17 17 16 13 13 18 13 18 20 14 9 16 15 17 17 18 22 26 24 23 28 18 17 15 10 10 9 10 11 10 10 10 11
3 6 18 19 15 13 22 14 17 16 19 20 25 21 21 19 17 15 16 14 14 12 15 17 14 11 18 11 16 18 16 15 16 20 19 17 14 10 10 10 10 8 8 8 5 7 11 6 4
5 14 16 19 21 15 18 15 11 22 16 17 21 21 19 16 17 15 17 17 18 14 13 14 13 12 19 7 13 16 14 12 10 14 11 12 8 9 5 7 9 7 4 6 6 5 2 8 5
4 17 15 15 14 18 11 10 13 21 20 19 20 19 17 15 16 15 20 17 17 14 14 13 14 12 10 4 9 18 17 10 9 13 13 13 8 7 3 4 4 3 4 3 3 5 6 6 7
12 12 15 13 19 13 13 13 13 19 19 19 19 17 16 14 13 16 19 19 19 17 14 11 15 10 11 14 13 13 10 9 12 4 10 6 13 7 8 5 1 4 7 4 5 5 3 8 5
6 13 12 16 14 9 13 11 16 16 18 19 17 15 16 13 15 14 12 14 18 19 18 15 12 17 8 11 13 13 11 10 8 7 12 11 10 8 7 8 6 7 5 5 6 6 7 10 6
11 11 11 13 13 11 18 8 13 16 18 17 16 14 15 14 13 12 13 12 12 14 19 13 11 12 13 11 13 10 9 10 6 7 6 12 10 11 9 6 5 6 7 12 12 7 11 10 10
16 17 12 12 24 11 12 8 12 16 18 16 15 14 13 14 14 11 11 12 17 15 11 14 13 12 8 7 12 8 10 9 6 10 5 8 9 8 8 8 5 6 9 11 11 11 15 11 10
8 13 16 11 26 13 8 9 15 17 16 15 14 15 15 12 13 12 10 12 13 13 11 11 14 10 8 9 8 12 13 11 12 11 7 5 3 8 7 8 8 11 13 10 8 7 10 9 9
12 5 16 16 13 22 21 15 14 18 18 16 16 14 15 14 13 11 13 12 13 12 13 12 9 14 6 8 8 4 7 7 7 6 11 11 8 9 13 5 13 14 11 7 4 10 6 7 12
12 24 10 13 11 11 10 16 15 16 17 16 16 16 13 16 14 14 14 14 13 13 13 13 13 13 11 5 11 7 5 7 5 4 5 6 6 12 6 8 11 5 7 7 8 9 8 10 12
18 14 6 12 14 8 7 19 17 16 14 18 15 18 13 16 19 18 15 17 16 16 15 15 14 12 14 8 9 10 9 6 9 3 10 12 9 6 9 9 4 7 13 11 10 9 10 12 7
9 15 4 13 8 13 11 11 14 15 15 17 13 19 17 14 15 18 18 17 19 21 19 17 17 14 13 11 9 8 6 4 8 9 9 5 6 9 8 10 7 11 8 5 9 6 7 9 7
7 5 5 1 14 11 13 9 11 13 12 11 16 15 20 19 19 17 19 17 19 21 20 20 19 20 14 16 8 6 6 6 8 6 8 6 7 5 6 9 9 9 6 6 8 8 9 9 5
1 3 18 17 18 3 12 9 10 12 11 13 12 16 15 23 23 21 16 21 16 21 22 22 21 19 17 14 14 12 11 6 5 7 8 8 11 11 7 7 8 11 6 8 11 10 10 8 5
10 18 34 18 9 4 11 9 12 12 13 12 14 11 14 12 17 22 19 16 16 16 20 22 21 19 21 17 20 15 11 12 9 9 10 8 8 10 9 7 11 12 9 7 7 10 12 4 10
16 16 4 6 3 11 24 10 10 14 15 13 16 12 8 6 9 12 13 17 14 15 16 20 20 19 22 23 19 19 16 15 16 14 13 9 10 11 13 14 7 7 8 11 12 13 7 6 3
7 10 5 5 6 16 11 12 12 14 16 18 14 11 8 13 12 12 9 15 16 16 17 19 20 20 22 25 22 17 16 16 14 13 9 10 10 8 8 8 4 8 11 12 9 5 3 6 5
8 5 29 19 23 7 15 20 14 14 14 11 18 14 13 13 12 12 10 13 16 17 19 20 21 19 20 21 25 22 18 15 14 14 16 15 14 16 15 12 18 11 12 11 8 2 3 11 7
8 5 7 5 6 3 15 13 11 13 12 13 9 16 20 14 13 10 12 13 15 16 18 18 21 20 15 20 20 23 23 21 17 20 18 15 11 12 14 19 16 14 12 10 7 5 8 10 8
6 10 2 5 4 6 13 10 10 12 13 11 12 15 18 15 12 10 12 12 13 15 19 19 19 18 17 17 21 18 19 19 17 16 22 20 21 21 17 17 18 15 14 11 9 9 11 10 8
12 13 16 3 4 6 13 11 14 10 8 14 12 11 13 13 12 11 10 10 10 10 14 14 15 14 14 15 15 22 20 19 19 22 16 22 22 20 21 22 19 15 16 13 11 10 10 12 9
Wind_Direction
99 40 360 279 318 109 50 49 47 11 65 63 65 63 65 52 70 112 135 125 115 100 86 92 87 72 61 53 52 95 133 148 146 146 141 137 133 130 127 123 129 127 121 116 115 118 117 113 109
101 121 217 262 59 53 79 103 143 131 55 87 82 82 77 81 91 117 131 124 105 92 92 98 89 75 64 55 56 88 122 141 144 145 148 142 131 129 128 123 122 123 118 118 115 117 111 110 108
153 191 252 275 46 105 77 84 83 64 119 86 72 80 83 89 97 102 110 121 106 88 97 102 93 79 64 60 67 84 111 127 137 146 149 143 130 128 125 120 116 118 115 115 114 115 114 113 113
249 202 244 94 93 63 52 88 92 94 95 100 104 77 81 93 110 111 111 106 89 85 101 106 99 85 73 67 74 91 103 112 126 145 136 135 138 128 125 121 114 116 113 116 117 114 113 113 114
298 307 212 78 83 59 54 80 89 95 99 90 97 97 89 102 112 117 119 111 100 94 100 110 100 91 86 80 75 85 94 101 114 130 131 134 136 126 121 107 113 118 116 115 119 118 115 114 113
310 55 67 336 93 98 40 86 78 77 88 100 104 106 107 118 120 116 118 114 109 103 102 111 111 102 97 92 87 85 88 91 105 121 124 135 138 122 113 108 108 113 116 116 118 119 114 106 106
259 344 132 169 89 81 83 93 109 112 110 101 116 117 128 123 125 121 114 108 117 117 111 101 113 111 104 99 96 93 88 96 95 110 113 116 113 110 105 104 104 111 118 117 113 109 102 98 102
95 167 127 71 90 90 97 94 101 99 95 118 125 133 129 132 131 126 123 109 109 108 126 103 99 90 102 106 100 101 102 101 101 100 106 110 104 102 102 98 95 107 115 115 112 107 103 96 98
157 261 57 79 88 120 124 85 94 127 83 93 132 134 134 139 137 136 120 112 115 127 129 124 129 139 121 111 107 101 99 105 107 110 101 105 94 90 100 93 99 103 104 109 115 110 106 99 96
265 67 62 77 97 87 90 113 127 112 97 96 103 121 136 140 149 138 136 138 137 142 143 113 120 120 120 111 98 103 97 111 95 106 104 106 97 98 79 84 98 101 105 94 90 108 113 58 11
272 71 65 67 83 107 118 144 135 122 118 126 129 135 141 148 149 154 154 150 147 140 134 136 126 146 142 91 118 123 114 112 112 114 103 125 135 142 98 74 95 78 94 113 80 61 83 358 332
150 89 91 103 103 81 97 129 64 100 115 129 135 138 143 162 149 149 139 146 144 145 147 133 147 152 157 141 161 128 139 156 144 152 147 168 135 96 111 256 1 74 337 192 22 229 303 278 230
86 101 100 106 92 110 100 84 100 111 122 131 134 139 151 152 142 146 142 143 148 148 156 152 161 142 168 178 119 140 154 143 169 141 126 162 140 138 152 189 209 236 228 139 194 222 254 289 293
112 109 119 103 97 98 96 124 115 123 135 133 142 149 150 151 137 129 135 143 149 151 156 164 170 173 171 171 185 163 143 162 191 206 177 155 149 163 195 211 202 251 269 247 237 253 253 269 282
143 131 133 117 113 47 19 145 117 144 140 144 152 161 133 149 133 146 141 141 137 136 148 151 165 166 179 169 165 158 163 194 214 141 196 171 179 188 216 222 224 224 264 283 235 246 256 272 237
37 342 133 131 98 84 72 111 134 148 149 159 158 138 148 128 149 152 149 147 129 136 151 171 157 157 164 193 152 171 190 194 187 192 242 205 192 222 236 246 234 239 238 258 262 261 240 259 270
231 221 132 135 131 146 135 199 151 155 157 165 159 150 153 161 149 163 164 144 138 143 152 141 160 160 183 179 178 192 196 195 196 218 232 252 247 249 227 241 244 254 251 243 280 264 285 263 289
234 178 124 143 151 163 186 138 156 164 159 168 164 167 166 170 175 179 163 154 158 152 160 160 158 156 203 174 189 183 195 202 209 212 197 231 228 230 256 251 261 268 271 248 233 260 249 264 273
1 7 81 115 148 189 168 147 162 172 167 163 175 168 186 172 184 181 185 176 173 170 170 175 171 188 172 195 185 213 195 200 183 191 194 209 225 253 261 260 250 278 295 298 250 266 271 253 246
109 218 234 105 146 200 179 146 159 174 190 160 195 166 194 192 175 185 193 192 185 186 192 186 185 204 164 166 211 211 190 213 213 232 194 229 208 226 250 260 261 266 262 267 285 285 279 277 266
207 234 117 134 167 165 126 126 146 170 188 172 193 174 182 193 196 181 199 200 190 195 195 207 192 218 171 185 191 212 163 181 158 199 253 251 204 227 245 284 266 262 276 258 287 295 299 302 269
238 269 226 171 182 167 181 125 131 162 191 194 195 200 189 193 186 200 194 202 204 198 197 208 220 210 202 179 192 191 175 194 211 226 247 234 266 237 233 264 286 295 282 266 280 289 281 268 308
271 294 10 54 293 232 173 127 147 161 182 181 209 214 214 193 192 190 201 195 203 198 199 204 224 225 201 204 188 216 203 223 245 225 252 232 250 275 267 269 280 289 276 274 282 281 287 275 290
16 30 72 313 343 182 93 43 165 175 165 162 170 215 213 196 195 188 186 178 186 191 191 200 216 230 201 208 190 199 214 213 217 227 236 241 270 294 293 277 264 281 297 291 271 277 280 311 247
83 60 38 209 250 122 133 187 95 130 137 146 147 169 163 161 164 155 172 167 179 180 185 197 218 228 216 211 205 210 210 227 224 229 240 246 265 254 262 285 301 299 298 277 269 271 286 251 249
81 96 169 254 217 111 120 127 119 105 107 125 142 135 149 180 153 138 156 171 177 184 189 195 218 225 220 215 218 223 226 235 243 245 250 243 263 283 255 271 260 281 268 274 287 296 76 296 256
129 71 233 223 259 169 103 105 113 124 136 156 125 141 121 82 96 125 153 171 180 188 194 196 217 232 222 217 216 221 229 228 225 231 248 253 247 227 234 240 268 253 262 268 274 202 230 244 241
302 263 300 204 94 166 122 134 126 156 152 130 157 129 126 131 132 148 158 170 180 190 198 198 213 228 222 211 227 224 230 239 226 224 231 247 241 246 235 238 257 265 263 271 278 194 272 265 225
182 227 208 212 11 277 138 110 113 135 146 162 152 141 127 130 131 155 158 163 174 186 197 201 210 218 215 213 218 231 236 236 251 243 224 235 235 243 237 238 254 253 263 267 270 230 238 256 239
257 300 207 158 324 294 104 118 132 145 104 99 98 96 94 123 133 135 135 153 162 178 194 201 210 216 223 227 223 231 237 235 239 252 250 239 247 242 245 244 245 253 260 262 267 249 226 260 242
Height
1477 1475 1471 1474 1474 1463 1473 1476 1467 1478 1470 1473 1477 1481 1488 1488 1491 1516 1515 1518 1519 1519 1518 1519 1520 1519 1517 1515 1513 1511 1512 1515 1519 1523 1527 1530 1533 1535 1538 1541 1542 1545 1547 1547 1548 1550 1551 1552 1554
1478 1476 1472 1471 1472 1475 1474 1467 1483 1474 1475 1479 1483 1490 1492 1497 1501 1506 1514 1518 1519 1520 1520 1520 1522 1521 1519 1515 1513 1511 1512 1516 1521 1525 1528 1532 1534 1539 1540 1542 1544 1547 1548 1550 1550 1552 1553 1554 1556
1473 1478 1476 1463 1471 1491 1482 1468 1471 1473 1477 1481 1489 1493 1497 1504 1507 1511 1515 1518 1522 1521 1521 1522 1523 1523 1522 1518 1516 1515 1516 1520 1524 1527 1526 1526 1536 1543 1544 1545 1547 1549 1550 1552 1554 1555 1556 1558 1559
1461 1470 1468 1459 1471 1468 1473 1470 1474 1477 1481 1487 1494 1500 1503 1507 1512 1515 1517 1520 1521 1523 1524 1525 1527 1526 1525 1524 1521 1521 1523 1525 1528 1528 1532 1537 1538 1541 1546 1548 1549 1551 1554 1555 1556 1558 1559 1560 1561
1454 1454 1463 1465 1475 1471 1467 1471 1475 1479 1483 1489 1497 1504 1507 1513 1516 1517 1519 1521 1524 1527 1528 1527 1528 1529 1529 1530 1527 1527 1528 1530 1532 1533 1533 1539 1544 1544 1548 1550 1551 1554 1556 1558 1559 1560 1561 1562 1563
1446 1451 1479 1491 1476 1473 1473 1473 1478 1482 1488 1496 1502 1507 1513 1517 1518 1520 1521 1523 1527 1528 1530 1530 1531 1533 1533 1533 1533 1533 1533 1533 1535 1537 1539 1542 1547 1549 1550 1552 1553 1556 1559 1560 1561 1563 1563 1564 1565
1464 1476 1472 1475 1472 1475 1473 1477 1480 1483 1489 1495 1504 1509 1514 1517 1520 1522 1524 1525 1527 1529 1531 1533 1534 1536 1536 1536 1537 1536 1537 1537 1538 1541 1545 1548 1548 1551 1554 1555 1556 1559 1561 1562 1564 1565 1566 1566 1567
1480 1484 1459 1457 1471 1481 1475 1477 1481 1488 1490 1496 1501 1509 1514 1519 1521 1524 1526 1528 1531 1532 1534 1534 1538 1539 1539 1538 1538 1539 1540 1540 1541 1545 1548 1550 1551 1553 1556 1557 1558 1561 1562 1564 1566 1567 1568 1568 1569
1464 1476 1463 1464 1471 1475 1476 1482 1488 1490 1492 1492 1500 1506 1515 1520 1523 1525 1528 1531 1534 1535 1536 1537 1539 1541 1541 1541 1542 1545 1549 1548 1546 1548 1553 1555 1554 1556 1558 1560 1560 1561 1564 1566 1567 1568 1569 1570 1571
1465 1463 1462 1462 1468 1472 1478 1485 1486 1491 1495 1501 1506 1512 1517 1521 1523 1526 1529 1533 1535 1535 1538 1540 1540 1541 1542 1543 1547 1554 1556 1556 1553 1553 1554 1555 1557 1558 1559 1561 1561 1564 1565 1567 1568 1569 1570 1571 1572
1464 1464 1465 1468 1471 1475 1481 1484 1483 1488 1496 1504 1509 1514 1518 1521 1522 1524 1527 1530 1535 1538 1540 1542 1543 1543 1544 1545 1548 1551 1548 1556 1556 1555 1555 1556 1560 1561 1561 1563 1564 1566 1567 1567 1569 1570 1571 1571 1573
1462 1463 1469 1471 1474 1478 1481 1482 1485 1489 1498 1505 1511 1515 1519 1519 1521 1524 1527 1531 1534 1538 1541 1542 1545 1546 1546 1546 1547 1551 1556 1559 1555 1555 1557 1559 1561 1562 1563 1564 1566 1565 1568 1569 1568 1569 1571 1571 1571
1461 1465 1471 1473 1477 1481 1482 1487 1491 1495 1502 1507 1512 1515 1518 1519 1522 1525 1527 1531 1534 1537 1541 1543 1545 1546 1547 1547 1548 1550 1554 1554 1553 1554 1556 1559 1560 1563 1564 1565 1566 1567 1568 1569 1569 1570 1570 1570 1570
1461 1467 1471 1473 1477 1479 1484 1488 1493 1500 1504 1509 1513 1514 1516 1519 1521 1526 1529 1531 1533 1536 1539 1542 1544 1546 1547 1548 1549 1550 1552 1553 1553 1555 1556 1559 1560 1561 1564 1566 1567 1567 1567 1568 1568 1569 1570 1569 1569
1466 1471 1471 1473 1476 1488 1488 1490 1495 1500 1504 1509 1512 1512 1516 1519 1524 1527 1529 1532 1535 1537 1540 1543 1544 1546 1548 1549 1550 1552 1553 1553 1554 1555 1557 1558 1560 1562 1562 1564 1565 1566 1565 1566 1566 1567 1567 1567 1568
1478 1479 1479 1472 1480 1492 1496 1503 1496 1500 1503 1508 1510 1513 1517 1521 1525 1528 1530 1532 1535 1538 1540 1542 1545 1545 1547 1549 1550 1552 1553 1554 1555 1556 1557 1558 1560 1561 1562 1563 1564 1564 1564 1564 1564 1564 1565 1565 1565
1475 1499 1473 1477 1479 1491 1495 1502 1495 1500 1503 1507 1510 1514 1517 1523 1526 1529 1531 1533 1535 1539 1542 1543 1545 1546 1548 1549 1551 1551 1552 1554 1555 1556 1557 1558 1559 1561 1562 1561 1562 1561 1561 1562 1562 1563 1563 1564 1563
1485 1465 1463 1476 1474 1481 1488 1489 1492 1497 1501 1506 1510 1514 1517 1522 1526 1529 1531 1533 1536 1538 1541 1544 1546 1547 1547 1549 1550 1551 1552 1553 1554 1555 1557 1558 1559 1560 1560 1560 1559 1558 1557 1558 1560 1562 1562 1562 1562
1461 1461 1463 1463 1466 1472 1474 1483 1489 1494 1497 1503 1507 1512 1515 1519 1524 1527 1530 1532 1536 1538 1541 1543 1544 1545 1548 1548 1549 1548 1550 1551 1553 1554 1556 1556 1557 1558 1557 1558 1558 1557 1557 1557 1558 1560 1559 1559 1559
1473 1482 1473 1464 1464 1468 1470 1478 1483 1490 1493 1499 1503 1508 1513 1515 1519 1524 1528 1530 1533 1537 1539 1541 1543 1544 1546 1548 1548 1548 1549 1551 1551 1553 1555 1556 1557 1557 1557 1557 1557 1557 1557 1557 1557 1558 1558 1557 1558
1471 1474 1463 1469 1463 1460 1467 1481 1483 1487 1491 1494 1499 1503 1508 1512 1515 1519 1523 1526 1529 1532 1536 1538 1541 1542 1544 1547 1549 1548 1550 1552 1553 1554 1555 1555 1556 1557 1557 1557 1555 1556 1556 1556 1556 1556 1556 1556 1557
1474 1454 1456 1456 1465 1484 1460 1507 1488 1487 1489 1491 1494 1498 1500 1504 1509 1513 1516 1521 1525 1527 1531 1535 1538 1540 1542 1544 1548 1548 1550 1552 1553 1554 1553 1554 1554 1556 1556 1556 1555 1555 1555 1555 1553 1554 1554 1555 1555
1460 1455 1458 1467 1486 1466 1470 1485 1492 1485 1490 1488 1491 1491 1493 1497 1501 1506 1510 1514 1520 1523 1526 1530 1534 1537 1540 1542 1545 1547 1549 1551 1552 1552 1553 1555 1554 1553 1554 1554 1554 1553 1553 1552 1552 1552 1552 1551 1552
1454 1468 1494 1502 1499 1493 1488 1517 1492 1485 1481 1481 1485 1488 1489 1490 1494 1500 1505 1510 1516 1520 1524 1527 1529 1533 1537 1539 1542 1544 1547 1548 1550 1551 1551 1552 1552 1551 1552 1552 1552 1551 1551 1551 1550 1549 1549 1549 1550
1465 1492 1522 1526 1516 1507 1494 1518 1482 1469 1470 1475 1481 1485 1488 1490 1492 1498 1504 1508 1514 1518 1523 1525 1527 1531 1534 1537 1540 1541 1544 1545 1547 1548 1549 1550 1551 1549 1550 1549 1549 1549 1550 1549 1548 1548 1547 1548 1548
1477 1499 1531 1544 1496 1491 1470 1492 1483 1468 1470 1474 1479 1482 1485 1487 1492 1496 1502 1506 1511 1515 1520 1524 1524 1527 1529 1533 1536 1539 1541 1542 1543 1545 1546 1547 1549 1550 1549 1547 1549 1549 1548 1547 1546 1545 1546 1547 1548
1496 1522 1481 1520 1497 1490 1473 1471 1467 1468 1471 1473 1477 1481 1485 1489 1493 1498 1502 1506 1509 1513 1517 1521 1522 1524 1527 1529 1532 1535 1537 1539 1540 1542 1543 1544 1545 1546 1547 1546 1545 1545 1545 1544 1544 1544 1546 1545 1545
1450 1452 1467 1467 1508 1512 1482 1481 1486 1473 1471 1472 1475 1479 1484 1491 1494 1498 1501 1504 1508 1512 1515 1519 1520 1522 1524 1527 1529 1531 1533 1535 1537 1538 1539 1540 1541 1542 1543 1542 1543 1542 1542 1541 1541 1542 1543 1542 1543
1455 1456 1455 1458 1477 1490 1494 1492 1464 1466 1467 1471 1472 1476 1483 1489 1494 1498 1501 1504 1508 1511 1513 1516 1519 1521 1523 1526 1529 1530 1531 1532 1533 1534 1536 1537 1537 1538 1538 1538 1539 1539 1539 1538 1538 1539 1539 1539 1539
1435 1441 1440 1466 1492 1464 1464 1485 1459 1463 1465 1470 1476 1479 1484 1489 1495 1499 1503 1506 1509 1512 1515 1518 1521 1523 1525 1527 1528 1529 1530 1530 1531 1530 1532 1534 1535 1535 1535 1536 1536 1536 1536 1536 1535 1536 1537 1537 1537